| time (UTC) | temp F | wind direction | speed knots | gust knots | rain 1hr in | rain 24hr in | rain mn in | humidity % | barometer mb |
| 20260505101743 | 62 | 60 | 3.5 | 4.3 | 0.01 | 0.01 | 0.00 | 97 | 913.5 |
| 20260505101741 | 62 | 57 | 3.5 | 4.3 | 0.01 | 0.01 | 0.00 | 97 | 913.5 |
| 20260505101241 | 62 | 58 | 0.9 | 3.5 | 0.00 | 0.00 | 0.00 | 97 | 913.5 |
| 20260505101142 | 62 | 66 | 0.0 | 2.6 | 0.00 | 0.00 | 0.00 | 98 | 913.5 |
| 20260505100741 | 62 | 91 | 0.9 | 2.6 | 0.00 | 0.00 | 0.00 | 97 | 913.5 |
| 20260505100542 | 62 | 60 | 1.7 | 2.6 | 0.00 | 0.00 | 0.00 | 97 | 913.5 |
| 20260505100241 | 62 | 48 | 0.0 | 2.6 | 0.00 | 0.00 | 0.00 | 97 | 913.4 |
| 20260505095942 | 62 | 63 | 2.6 | 3.5 | 0.00 | 0.00 | 0.00 | 97 | 913.4 |
| 20260505095741 | 62 | 66 | 2.6 | 3.5 | 0.00 | 0.00 | 0.00 | 97 | 913.4 |
| 20260505095342 | 62 | 69 | 0.9 | 4.3 | 0.00 | 0.00 | 0.00 | 97 | 913.4 |
| 20260505094743 | 62 | 56 | 4.3 | 5.2 | 0.00 | 0.00 | 0.00 | 97 | 913.3 |
| 20260505094741 | 62 | 54 | 4.3 | 5.2 | 0.00 | 0.00 | 0.00 | 97 | 913.3 |
| 20260505094142 | 62 | 43 | 3.5 | 4.3 | 0.00 | 0.00 | 0.00 | 97 | 913.3 |
| 20260505093741 | 62 | 60 | 0.0 | 4.3 | 0.00 | 0.00 | 0.00 | 97 | 913.2 |
| 20260505093542 | 63 | 52 | 4.3 | 6.1 | 0.00 | 0.00 | 0.00 | 97 | 913.3 |
| 20260505093241 | 63 | 77 | 0.9 | 5.2 | 0.00 | 0.00 | 0.00 | 97 | 913.3 |
| 20260505092942 | 63 | 62 | 0.9 | 3.5 | 0.00 | 0.00 | 0.00 | 97 | 913.3 |
| 20260505092342 | 63 | 71 | 0.0 | 2.6 | 0.00 | 0.00 | 0.00 | 98 | 913.3 |
| 20260505092241 | 63 | 71 | 1.7 | 2.6 | 0.00 | 0.00 | 0.00 | 97 | 913.3 |
| 20260505091745 | 63 | 56 | 0.0 | 0.0 | 0.00 | 0.00 | 0.00 | 97 | 913.2 |
| 20260505091240 | 63 | 69 | 0.0 | 2.6 | 0.00 | 0.00 | 0.00 | 97 | 913.2 |
| 20260505091142 | 63 | 57 | 0.9 | 3.5 | 0.00 | 0.00 | 0.00 | 97 | 913.3 |
| 20260505090740 | 63 | 38 | 0.0 | 1.7 | 0.00 | 0.00 | 0.00 | 97 | 913.3 |
| 20260505090542 | 64 | 64 | 1.7 | 2.6 | 0.00 | 0.00 | 0.00 | 97 | 913.3 |
| 20260505090240 | 64 | 48 | 2.6 | 2.6 | 0.00 | 0.00 | 0.00 | 97 | 913.2 |
| 20260505085943 | 63 | 46 | 0.0 | 0.0 | 0.00 | 0.00 | 0.00 | 97 | 913.2 |
| 20260505085740 | 64 | 49 | 2.6 | 3.5 | 0.00 | 0.00 | 0.00 | 97 | 913.2 |
| 20260505085342 | 63 | 49 | 1.7 | 2.6 | 0.00 | 0.00 | 0.00 | 97 | 913.2 |
| 20260505085240 | 63 | 45 | 0.9 | 2.6 | 0.00 | 0.00 | 0.00 | 97 | 913.3 |
| 20260505084742 | 64 | 45 | 1.7 | 2.6 | 0.00 | 0.00 | 0.00 | 97 | 913.3 |
| 20260505084740 | 64 | 51 | 1.7 | 2.6 | 0.00 | 0.00 | 0.00 | 97 | 913.3 |
| 20260505084241 | 64 | 63 | 1.7 | 3.5 | 0.00 | 0.00 | 0.00 | 97 | 913.3 |
| 20260505084141 | 64 | 105 | 1.7 | 3.5 | 0.00 | 0.00 | 0.00 | 97 | 913.4 |
| 20260505083740 | 64 | 90 | 1.7 | 3.5 | 0.00 | 0.00 | 0.00 | 97 | 913.4 |
| 20260505083542 | 65 | 138 | 0.0 | 1.7 | 0.00 | 0.00 | 0.00 | 98 | 913.4 |
| 20260505083240 | 64 | 175 | 0.0 | 0.9 | 0.00 | 0.00 | 0.00 | 97 | 913.4 |
| 20260505082943 | 65 | 114 | 0.0 | 0.9 | 0.00 | 0.00 | 0.00 | 97 | 913.4 |
| 20260505082740 | 65 | 148 | 0.0 | 1.7 | 0.00 | 0.00 | 0.00 | 97 | 913.4 |
| 20260505082341 | 65 | 167 | 0.0 | 0.0 | 0.00 | 0.00 | 0.00 | 97 | 913.3 |
| 20260505082240 | 65 | 97 | 0.0 | 0.9 | 0.00 | 0.00 | 0.00 | 97 | 913.3 |
| 20260505081742 | 65 | 66 | 0.9 | 1.7 | 0.00 | 0.00 | 0.00 | 98 | 913.3 |
| 20260505081740 | 65 | 66 | 0.9 | 1.7 | 0.00 | 0.00 | 0.00 | 98 | 913.3 |
| 20260505081240 | 64 | 55 | 1.7 | 2.6 | 0.00 | 0.00 | 0.00 | 97 | 913.3 |
| 20260505081141 | 64 | 61 | 0.9 | 2.6 | 0.00 | 0.00 | 0.00 | 97 | 913.4 |
| 20260505080740 | 65 | 73 | 0.9 | 1.7 | 0.00 | 0.00 | 0.00 | 97 | 913.4 |
| 20260505080541 | 66 | 80 | 0.0 | 0.9 | 0.00 | 0.00 | 0.00 | 98 | 913.4 |
| 20260505080240 | 66 | 89 | 0.0 | 0.0 | 0.00 | 0.00 | 0.00 | 98 | 913.4 |
| 20260505075941 | 66 | 113 | 0.0 | 0.0 | 0.00 | 0.00 | 0.00 | 98 | 913.4 |
| 20260505075740 | 65 | 226 | 0.0 | 0.0 | 0.00 | 0.00 | 0.00 | 98 | 913.4 |
| 20260505075341 | 66 | 204 | 0.9 | 2.6 | 0.00 | 0.00 | 0.00 | 98 | 913.4 |
| 20260505075240 | 66 | 187 | 0.0 | 2.6 | 0.00 | 0.00 | 0.00 | 98 | 913.4 |
| 20260505074742 | 65 | 228 | 0.0 | 0.0 | 0.00 | 0.00 | 0.00 | 98 | 913.4 |
| 20260505074740 | 65 | 227 | 0.0 | 0.0 | 0.00 | 0.00 | 0.00 | 98 | 913.4 |
| 20260505074240 | 65 | 165 | 0.0 | 0.9 | 0.00 | 0.00 | 0.00 | 98 | 913.5 |
| 20260505073740 | 65 | 115 | 0.0 | 0.9 | 0.00 | 0.00 | 0.00 | 97 | 913.5 |
| 20260505073541 | 65 | 129 | 0.0 | 1.7 | 0.00 | 0.00 | 0.00 | 98 | 913.5 |
| 20260505073240 | 65 | 200 | 0.0 | 2.6 | 0.00 | 0.00 | 0.00 | 97 | 913.6 |
| 20260505072740 | 65 | 209 | 0.0 | 0.0 | 0.00 | 0.00 | 0.00 | 97 | 913.8 |
| 20260505072240 | 65 | 91 | 0.0 | 1.7 | 0.00 | 0.00 | 0.00 | 97 | 913.8 |
| 20260505071741 | 65 | 116 | 0.0 | 1.7 | 0.00 | 0.00 | 0.00 | 97 | 913.8 |
| 20260505071240 | 65 | 262 | 0.0 | 1.7 | 0.00 | 0.00 | 0.00 | 97 | 913.9 |
| 20260505070541 | 66 | 258 | 0.9 | 4.3 | 0.00 | 0.00 | 0.00 | 97 | 913.8 |
| 20260505070239 | 66 | 209 | 0.9 | 3.5 | 0.00 | 0.00 | 0.00 | 98 | 913.8 |
| 20260505065941 | 65 | 205 | 0.0 | 0.9 | 0.00 | 0.00 | 0.00 | 97 | 913.8 |
| 20260505065740 | 66 | 200 | 2.6 | 4.3 | 0.00 | 0.00 | 0.00 | 97 | 913.8 |
| 20260505065341 | 66 | 170 | 0.9 | 3.5 | 0.00 | 0.00 | 0.00 | 97 | 913.9 |
| 20260505065239 | 66 | 232 | 1.7 | 3.5 | 0.00 | 0.00 | 0.00 | 97 | 913.9 |
| 20260505064741 | 65 | 197 | 2.6 | 4.3 | 0.00 | 0.00 | 0.00 | 97 | 913.9 |
| 20260505064739 | 65 | 202 | 2.6 | 4.3 | 0.00 | 0.00 | 0.00 | 97 | 913.9 |
| 20260505064240 | 65 | 208 | 0.0 | 0.0 | 0.00 | 0.00 | 0.00 | 98 | 914.0 |
| 20260505063739 | 65 | 252 | 0.0 | 2.6 | 0.00 | 0.00 | 0.00 | 97 | 914.1 |
| 20260505063541 | 65 | 234 | 0.0 | 2.6 | 0.00 | 0.00 | 0.00 | 97 | 914.1 |
| 20260505063239 | 66 | 252 | 0.0 | 4.3 | 0.00 | 0.00 | 0.00 | 97 | 914.2 |
| 20260505062941 | 67 | 292 | 0.0 | 4.3 | 0.00 | 0.00 | 0.00 | 98 | 914.2 |
| 20260505062739 | 67 | 198 | 0.9 | 4.3 | 0.00 | 0.00 | 0.00 | 98 | 914.2 |
| 20260505062340 | 66 | 157 | 0.0 | 3.5 | 0.00 | 0.00 | 0.00 | 98 | 914.3 |
| 20260505062240 | 66 | 198 | 0.0 | 3.5 | 0.00 | 0.00 | 0.00 | 98 | 914.3 |
| 20260505061741 | 65 | 162 | 0.0 | 1.7 | 0.00 | 0.00 | 0.00 | 98 | 914.3 |
| 20260505061240 | 65 | 263 | 0.0 | 0.9 | 0.00 | 0.00 | 0.00 | 97 | 914.3 |
| 20260505061140 | 65 | 238 | 0.0 | 0.9 | 0.00 | 0.00 | 0.00 | 97 | 914.4 |
| 20260505060739 | 65 | 270 | 0.0 | 2.6 | 0.00 | 0.00 | 0.00 | 97 | 914.4 |
| 20260505060540 | 66 | 293 | 0.0 | 4.3 | 0.00 | 0.00 | 0.00 | 98 | 914.3 |
| 20260505060239 | 65 | 307 | 0.9 | 4.3 | 0.00 | 0.00 | 0.00 | 98 | 914.3 |
| 20260505055940 | 65 | 232 | 1.7 | 4.3 | 0.00 | 0.00 | 0.00 | 98 | 914.3 |
| 20260505055739 | 65 | 261 | 1.7 | 3.5 | 0.00 | 0.00 | 0.00 | 98 | 914.4 |
| 20260505055340 | 65 | 262 | 2.6 | 4.3 | 0.00 | 0.00 | 0.00 | 98 | 914.4 |
| 20260505055239 | 65 | 255 | 1.7 | 4.3 | 0.00 | 0.00 | 0.00 | 98 | 914.4 |
| 20260505054741 | 65 | 252 | 1.7 | 5.2 | 0.00 | 0.00 | 0.00 | 98 | 914.4 |
| 20260505054739 | 65 | 249 | 1.7 | 5.2 | 0.00 | 0.00 | 0.00 | 98 | 914.4 |
| 20260505054239 | 65 | 275 | 1.7 | 4.3 | 0.00 | 0.00 | 0.00 | 98 | 914.5 |
| 20260505054140 | 65 | 258 | 1.7 | 4.3 | 0.00 | 0.00 | 0.00 | 98 | 914.5 |
| 20260505053739 | 65 | 268 | 1.7 | 3.5 | 0.00 | 0.00 | 0.00 | 98 | 914.6 |
| 20260505053540 | 65 | 194 | 1.7 | 3.5 | 0.00 | 0.00 | 0.00 | 98 | 914.7 |
| 20260505053239 | 64 | 252 | 1.7 | 4.3 | 0.00 | 0.00 | 0.00 | 98 | 914.7 |
| 20260505052940 | 65 | 267 | 2.6 | 4.3 | 0.00 | 0.00 | 0.00 | 98 | 914.7 |
| 20260505052739 | 64 | 256 | 1.7 | 3.5 | 0.00 | 0.00 | 0.00 | 98 | 914.7 |
| 20260505052340 | 65 | 256 | 0.9 | 3.5 | 0.00 | 0.00 | 0.00 | 98 | 914.8 |
| 20260505051740 | 64 | 256 | 2.6 | 5.2 | 0.00 | 0.00 | 0.00 | 98 | 914.9 |
| 20260505051239 | 65 | 235 | 2.6 | 5.2 | 0.00 | 0.00 | 0.00 | 98 | 914.9 |
| 20260505051140 | 65 | 245 | 1.7 | 5.2 | 0.00 | 0.00 | 0.00 | 98 | 915.0 |
| 20260505050540 | 65 | 242 | 2.6 | 5.2 | 0.00 | 0.00 | 0.00 | 98 | 915.1 |
| 20260505050239 | 65 | 259 | 1.7 | 3.5 | 0.00 | 0.00 | 0.00 | 98 | 915.0 |
| 20260505041740 | 64 | 270 | 3.5 | 7.0 | 0.00 | 0.00 | 0.00 | 97 | 915.4 |
| 20260505041738 | 64 | 269 | 3.5 | 7.0 | 0.00 | 0.00 | 0.00 | 97 | 915.4 |
| 20260505041238 | 64 | 255 | 2.6 | 7.0 | 0.00 | 0.00 | 0.00 | 98 | 915.5 |
| 20260505041139 | 63 | 245 | 3.5 | 7.0 | 0.00 | 0.00 | 0.00 | 98 | 915.6 |
| 20260505040738 | 64 | 229 | 2.6 | 5.2 | 0.00 | 0.00 | 0.00 | 98 | 915.7 |
| 20260505040539 | 64 | 245 | 3.5 | 5.2 | 0.00 | 0.00 | 0.00 | 97 | 915.7 |
| 20260505040238 | 64 | 280 | 2.6 | 4.3 | 0.00 | 0.00 | 0.00 | 97 | 915.7 |
| 20260505035939 | 64 | 238 | 1.7 | 4.3 | 0.00 | 0.00 | 0.00 | 98 | 915.7 |
| 20260505035738 | 64 | 221 | 1.7 | 4.3 | 0.00 | 0.00 | 0.00 | 98 | 915.7 |
| 20260505035339 | 64 | 232 | 2.6 | 4.3 | 0.00 | 0.00 | 0.00 | 98 | 915.8 |
| 20260505035238 | 64 | 274 | 1.7 | 3.5 | 0.00 | 0.00 | 0.00 | 98 | 915.8 |
| 20260505034740 | 64 | 258 | 2.6 | 4.3 | 0.00 | 0.00 | 0.00 | 98 | 915.8 |
| 20260505034738 | 64 | 256 | 2.6 | 4.3 | 0.00 | 0.00 | 0.00 | 98 | 915.8 |
| 20260505034238 | 64 | 247 | 1.7 | 3.5 | 0.00 | 0.00 | 0.00 | 98 | 915.8 |
| 20260505034139 | 64 | 253 | 0.0 | 1.7 | 0.00 | 0.00 | 0.00 | 98 | 915.8 |
| 20260505033738 | 64 | 234 | 0.9 | 3.5 | 0.00 | 0.00 | 0.00 | 98 | 915.8 |
| 20260505033539 | 63 | 251 | 2.6 | 4.3 | 0.00 | 0.00 | 0.00 | 98 | 915.9 |
| 20260505033238 | 64 | 255 | 2.6 | 5.2 | 0.01 | 0.01 | 0.00 | 98 | 915.9 |
| 20260505032939 | 64 | 254 | 3.5 | 5.2 | 0.00 | 0.00 | 0.00 | 98 | 915.9 |
| 20260505032738 | 64 | 215 | 4.3 | 6.1 | 0.00 | 0.00 | 0.00 | 98 | 915.9 |
| 20260505032339 | 63 | 206 | 3.5 | 5.2 | 0.00 | 0.00 | 0.00 | 98 | 915.9 |
| 20260505032238 | 64 | 227 | 1.7 | 5.2 | 0.00 | 0.00 | 0.00 | 98 | 916.0 |
| 20260505031740 | 63 | 217 | 2.6 | 4.3 | 0.01 | 0.01 | 0.00 | 98 | 916.1 |
| 20260505031738 | 63 | 214 | 2.6 | 4.3 | 0.01 | 0.01 | 0.00 | 98 | 916.0 |
| 20260505031238 | 63 | 185 | 2.6 | 4.3 | 0.00 | 0.00 | 0.00 | 98 | 916.1 |
| 20260505031139 | 63 | 169 | 0.9 | 4.3 | 0.00 | 0.00 | 0.00 | 98 | 916.1 |
| 20260505030737 | 62 | 156 | 0.0 | 1.7 | 0.00 | 0.00 | 0.00 | 98 | 916.0 |
| 20260505030539 | 62 | 120 | 1.7 | 2.6 | 0.00 | 0.00 | 0.00 | 98 | 916.0 |
| 20260505030238 | 61 | 110 | 3.5 | 7.0 | 0.01 | 0.01 | 0.00 | 98 | 916.1 |
| 20260505025939 | 61 | 121 | 3.5 | 5.2 | 0.00 | 0.00 | 0.00 | 97 | 916.1 |
| 20260505025738 | 60 | 103 | 0.9 | 5.2 | 0.00 | 0.00 | 0.00 | 97 | 916.1 |
| 20260505025339 | 60 | 55 | 2.6 | 6.1 | 0.01 | 0.01 | 0.00 | 97 | 916.1 |
| 20260505025238 | 60 | 64 | 2.6 | 6.1 | 0.01 | 0.01 | 0.00 | 97 | 916.1 |
| 20260505024739 | 61 | 96 | 3.5 | 6.1 | 0.00 | 0.00 | 0.00 | 97 | 916.1 |
| 20260505024238 | 61 | 110 | 0.9 | 4.3 | 0.00 | 0.00 | 0.00 | 97 | 916.1 |
| 20260505024139 | 60 | 116 | 0.0 | 0.9 | 0.00 | 0.00 | 0.00 | 98 | 916.1 |
| 20260505023737 | 60 | 3 | 0.0 | 1.7 | 0.00 | 0.00 | 0.00 | 97 | 916.1 |
| 20260505023539 | 60 | 63 | 0.0 | 3.5 | 0.00 | 0.00 | 0.00 | 97 | 916.2 |
| 20260505023237 | 60 | 52 | 2.6 | 4.3 | 0.00 | 0.00 | 0.00 | 97 | 916.2 |
| 20260505022939 | 60 | 71 | 1.7 | 4.3 | 0.00 | 0.00 | 0.00 | 97 | 916.1 |
| 20260505022737 | 60 | 52 | 2.6 | 6.1 | 0.00 | 0.00 | 0.00 | 97 | 916.1 |
| 20260505022339 | 60 | 42 | 3.5 | 6.1 | 0.00 | 0.00 | 0.00 | 97 | 916.1 |
| 20260505022237 | 59 | 51 | 3.5 | 6.1 | 0.00 | 0.00 | 0.00 | 97 | 916.1 |
| 20260505021737 | 59 | 32 | 3.5 | 6.1 | 0.00 | 0.00 | 0.00 | 97 | 916.1 |
| 20260505021237 | 60 | 56 | 4.3 | 7.0 | 0.00 | 0.00 | 0.00 | 97 | 916.0 |
| 20260505021138 | 59 | 62 | 4.3 | 7.0 | 0.00 | 0.00 | 0.00 | 97 | 916.1 |
| 20260505020738 | 60 | 74 | 5.2 | 7.8 | 0.00 | 0.00 | 0.00 | 97 | 916.0 |
| 20260505020538 | 60 | 56 | 3.5 | 7.8 | 0.00 | 0.00 | 0.00 | 97 | 916.0 |
| 20260505020237 | 60 | 84 | 6.1 | 7.8 | 0.00 | 0.00 | 0.00 | 98 | 916.0 |
| 20260505015938 | 59 | 85 | 1.7 | 7.0 | 0.00 | 0.00 | 0.00 | 97 | 916.0 |
| 20260505015338 | 59 | 19 | 3.5 | 5.2 | 0.01 | 0.01 | 0.00 | 97 | 916.0 |
| 20260505015237 | 59 | 44 | 4.3 | 5.2 | 0.01 | 0.01 | 0.00 | 97 | 916.0 |
| 20260505014740 | 59 | 64 | 0.9 | 5.2 | 0.00 | 0.00 | 0.00 | 97 | 916.0 |
| 20260505014738 | 59 | 66 | 0.9 | 5.2 | 0.00 | 0.00 | 0.00 | 97 | 916.0 |
| 20260505014237 | 59 | 52 | 3.5 | 6.1 | 0.01 | 0.01 | 0.00 | 97 | 916.0 |
| 20260505014138 | 59 | 41 | 3.5 | 6.1 | 0.01 | 0.01 | 0.00 | 97 | 916.0 |
| 20260505013538 | 59 | 90 | 4.3 | 6.1 | 0.01 | 0.01 | 0.00 | 97 | 916.0 |
| 20260505012938 | 59 | 57 | 4.3 | 5.2 | 0.00 | 0.00 | 0.00 | 97 | 916.0 |
| 20260505012338 | 59 | 53 | 4.3 | 8.7 | 0.01 | 0.01 | 0.00 | 97 | 916.0 |
| 20260505012237 | 59 | 67 | 4.3 | 8.7 | 0.01 | 0.01 | 0.00 | 97 | 916.0 |
| 20260505011739 | 59 | 76 | 7.0 | 8.7 | 0.00 | 0.00 | 0.00 | 97 | 916.0 |
| 20260505011737 | 59 | 77 | 7.0 | 8.7 | 0.00 | 0.00 | 0.00 | 97 | 916.0 |
| 20260505011237 | 59 | 78 | 2.6 | 7.8 | 0.00 | 0.00 | 0.00 | 97 | 916.0 |
| 20260505010737 | 59 | 70 | 7.8 | 10.4 | 0.00 | 0.00 | 0.00 | 97 | 916.0 |
| 20260505010539 | 59 | 25 | 0.0 | 0.0 | 0.00 | 0.00 | 0.00 | 97 | 915.9 |
| 20260505010237 | 59 | 91 | 0.0 | 7.0 | 0.00 | 0.00 | 0.00 | 97 | 915.9 |
| 20260505005938 | 59 | 69 | 0.9 | 7.8 | 0.00 | 0.00 | 0.00 | 97 | 915.8 |
| 20260505005737 | 59 | 79 | 7.0 | 9.6 | 0.01 | 0.01 | 0.00 | 97 | 915.7 |
| 20260505005338 | 59 | 85 | 7.8 | 9.6 | 0.00 | 0.00 | 0.00 | 97 | 915.8 |
| 20260505005237 | 59 | 80 | 7.0 | 9.6 | 0.00 | 0.00 | 0.00 | 97 | 915.7 |
| 20260505004738 | 59 | 57 | 7.0 | 9.6 | 0.01 | 0.01 | 0.00 | 97 | 915.7 |
| 20260505004736 | 59 | 58 | 7.0 | 9.6 | 0.01 | 0.01 | 0.00 | 97 | 915.7 |
| 20260505004237 | 59 | 73 | 7.8 | 9.6 | 0.01 | 0.01 | 0.00 | 97 | 915.7 |
| 20260505004138 | 59 | 85 | 3.5 | 9.6 | 0.00 | 0.00 | 0.00 | 97 | 915.6 |
| 20260505003736 | 59 | 59 | 7.8 | 12.2 | 0.01 | 0.01 | 0.00 | 97 | 915.6 |
| 20260505003538 | 59 | 75 | 8.7 | 10.4 | 0.01 | 0.01 | 0.00 | 97 | 915.6 |
| 20260505003237 | 59 | 62 | 5.2 | 10.4 | 0.00 | 0.00 | 0.00 | 97 | 915.5 |
| 20260505002938 | 59 | 58 | 0.0 | 8.7 | 0.00 | 0.00 | 0.00 | 97 | 915.4 |
| 20260505002736 | 59 | 71 | 7.8 | 9.6 | 0.01 | 0.01 | 0.00 | 97 | 915.5 |
| 20260505002338 | 59 | 87 | 7.8 | 10.4 | 0.03 | 0.03 | 0.00 | 97 | 915.4 |
| 20260505002236 | 59 | 70 | 7.8 | 10.4 | 0.03 | 0.03 | 0.00 | 97 | 915.4 |
| 20260505001738 | 59 | 79 | 7.0 | 10.4 | 0.02 | 0.02 | 0.00 | 97 | 915.4 |
| 20260505001736 | 59 | 72 | 7.0 | 10.4 | 0.02 | 0.02 | 0.00 | 97 | 915.4 |
| 20260505001236 | 59 | 66 | 4.3 | 7.0 | 0.00 | 0.00 | 0.00 | 97 | 915.4 |
| 20260505001138 | 59 | 77 | 0.9 | 7.0 | 0.00 | 0.00 | 0.00 | 97 | 915.4 |
| 20260505000736 | 59 | 60 | 7.0 | 8.7 | 0.00 | 0.00 | 0.00 | 97 | 915.3 |
| 20260505000538 | 59 | 83 | 7.0 | 8.7 | 0.00 | 0.00 | 0.00 | 97 | 915.3 |
| 20260504235938 | 59 | 66 | 5.2 | 7.0 | 0.00 | 0.00 | 0.00 | 97 | 915.3 |
| 20260504235736 | 59 | 79 | 5.2 | 7.0 | 0.00 | 0.00 | 0.00 | 97 | 915.4 |
| 20260504235337 | 59 | 60 | 0.0 | 5.2 | 0.00 | 0.00 | 0.00 | 97 | 915.3 |
| 20260504235237 | 59 | 63 | 6.1 | 9.6 | 0.00 | 0.00 | 0.00 | 97 | 915.3 |
| 20260504234738 | 59 | 75 | 7.0 | 8.7 | 0.00 | 0.00 | 0.00 | 97 | 915.1 |
| 20260504234736 | 59 | 72 | 7.0 | 8.7 | 0.00 | 0.00 | 0.00 | 97 | 915.1 |
| 20260504234237 | 59 | 63 | 3.5 | 9.6 | 0.00 | 0.00 | 0.00 | 97 | 915.1 |
| 20260504233736 | 59 | 80 | 7.0 | 10.4 | 0.00 | 0.00 | 0.00 | 97 | 915.1 |
| 20260504233537 | 59 | 50 | 7.8 | 10.4 | 0.00 | 0.00 | 0.00 | 97 | 915.1 |
| 20260504233236 | 59 | 75 | 8.7 | 10.4 | 0.00 | 0.00 | 0.00 | 97 | 915.1 |
| 20260504232937 | 59 | 58 | 7.0 | 10.4 | 0.00 | 0.00 | 0.00 | 97 | 915.0 |
| 20260504232736 | 59 | 54 | 7.0 | 10.4 | 0.00 | 0.00 | 0.00 | 97 | 915.0 |
| 20260504232337 | 59 | 46 | 4.3 | 9.6 | 0.00 | 0.00 | 0.00 | 97 | 915.0 |
| 20260504232236 | 59 | 66 | 0.0 | 8.7 | 0.00 | 0.00 | 0.00 | 97 | 915.0 |
| 20260504231738 | 59 | 85 | 8.7 | 9.6 | 0.01 | 0.01 | 0.00 | 97 | 914.9 |
| 20260504231736 | 59 | 66 | 8.7 | 9.6 | 0.01 | 0.01 | 0.00 | 97 | 914.9 |
| 20260504231236 | 59 | 72 | 7.0 | 9.6 | 0.01 | 0.01 | 0.00 | 97 | 914.9 |
| 20260504231137 | 59 | 69 | 7.0 | 10.4 | 0.01 | 0.01 | 0.00 | 97 | 914.9 |
| 20260504230736 | 59 | 58 | 7.8 | 10.4 | 0.01 | 0.01 | 0.00 | 97 | 915.0 |
| 20260504230537 | 59 | 64 | 7.0 | 10.4 | 0.00 | 0.00 | 0.00 | 97 | 915.0 |
| 20260504230236 | 59 | 67 | 3.5 | 10.4 | 0.00 | 0.00 | 0.00 | 97 | 915.0 |
| 20260504225937 | 59 | 53 | 7.0 | 9.6 | 0.00 | 0.00 | 0.00 | 97 | 914.9 |
| 20260504225736 | 59 | 78 | 7.0 | 9.6 | 0.00 | 0.00 | 0.00 | 97 | 914.9 |
| 20260504225337 | 59 | 87 | 7.0 | 9.6 | 0.00 | 0.00 | 0.00 | 97 | 915.0 |
| 20260504225237 | 59 | 58 | 6.1 | 7.8 | 0.00 | 0.00 | 0.00 | 97 | 915.0 |
| 20260504224737 | 59 | 71 | 6.1 | 7.8 | 0.00 | 0.00 | 0.00 | 97 | 915.0 |
| 20260504224236 | 58 | 68 | 6.1 | 7.8 | 0.00 | 0.00 | 0.00 | 97 | 915.0 |
| 20260504224137 | 58 | 70 | 6.1 | 7.8 | 0.00 | 0.00 | 0.00 | 97 | 915.0 |
| 20260504223736 | 58 | 76 | 3.5 | 7.8 | 0.00 | 0.00 | 0.00 | 97 | 914.9 |
| 20260504223537 | 58 | 66 | 7.8 | 9.6 | 0.01 | 0.01 | 0.00 | 97 | 914.9 |
| 20260504223236 | 58 | 74 | 7.8 | 9.6 | 0.01 | 0.01 | 0.00 | 97 | 914.8 |
| 20260504222937 | 58 | 77 | 7.8 | 9.6 | 0.00 | 0.00 | 0.00 | 97 | 914.8 |
| 20260504222736 | 58 | 87 | 7.0 | 9.6 | 0.00 | 0.00 | 0.00 | 97 | 914.7 |
| 20260504222337 | 58 | 69 | 5.2 | 9.6 | 0.00 | 0.00 | 0.00 | 97 | 914.7 |
| 20260504222236 | 58 | 76 | 0.9 | 9.6 | 0.00 | 0.00 | 0.00 | 97 | 914.7 |
| 20260504221737 | 58 | 74 | 8.7 | 12.2 | 0.05 | 0.05 | 0.00 | 97 | 914.7 |
| 20260504221735 | 58 | 79 | 8.7 | 12.2 | 0.05 | 0.05 | 0.00 | 97 | 914.7 |
| 20260504221235 | 58 | 72 | 8.7 | 14.8 | 0.03 | 0.03 | 0.00 | 97 | 914.7 |
| 20260504220735 | 58 | 70 | 11.3 | 14.8 | 0.02 | 0.02 | 0.00 | 97 | 914.6 |
| 20260504220537 | 58 | 54 | 11.3 | 14.8 | 0.02 | 0.02 | 0.00 | 97 | 914.5 |
| 20260504220235 | 58 | 83 | 10.4 | 13.9 | 0.01 | 0.01 | 0.00 | 97 | 914.6 |
| 20260504215937 | 58 | 77 | 8.7 | 13.9 | 0.01 | 0.01 | 0.00 | 97 | 914.7 |
| 20260504215735 | 58 | 45 | 8.7 | 13.9 | 0.01 | 0.01 | 0.00 | 97 | 914.7 |
| 20260504215336 | 58 | 43 | 8.7 | 12.2 | 0.00 | 0.00 | 0.00 | 97 | 914.7 |
| 20260504215236 | 58 | 77 | 7.8 | 11.3 | 0.00 | 0.00 | 0.00 | 97 | 914.8 |
| 20260504214735 | 58 | 65 | 8.7 | 10.4 | 0.00 | 0.00 | 0.00 | 97 | 914.8 |
| 20260504214235 | 58 | 52 | 7.8 | 13.9 | 0.00 | 0.00 | 0.00 | 97 | 914.8 |
| 20260504214136 | 58 | 68 | 7.8 | 13.9 | 0.00 | 0.00 | 0.00 | 97 | 914.7 |
| 20260504213735 | 58 | 76 | 8.7 | 13.9 | 0.00 | 0.00 | 0.00 | 97 | 914.6 |
| 20260504213536 | 58 | 73 | 9.6 | 13.9 | 0.00 | 0.00 | 0.00 | 97 | 914.6 |
| 20260504213235 | 58 | 74 | 10.4 | 13.0 | 0.00 | 0.00 | 0.00 | 97 | 914.5 |
| 20260504212936 | 58 | 85 | 10.4 | 13.0 | 0.00 | 0.00 | 0.00 | 97 | 914.4 |
| 20260504212735 | 58 | 79 | 3.5 | 13.0 | 0.00 | 0.00 | 0.00 | 97 | 914.4 |
| 20260504212336 | 58 | 81 | 12.2 | 17.4 | 0.00 | 0.00 | 0.00 | 97 | 914.3 |
| 20260504212236 | 58 | 70 | 13.0 | 17.4 | 0.00 | 0.00 | 0.00 | 97 | 914.3 |
| 20260504211737 | 58 | 85 | 12.2 | 16.5 | 0.00 | 0.00 | 0.00 | 97 | 914.2 |
| 20260504211735 | 58 | 43 | 12.2 | 16.5 | 0.00 | 0.00 | 0.00 | 97 | 914.3 |
| 20260504211235 | 58 | 92 | 12.2 | 16.5 | 0.00 | 0.00 | 0.00 | 97 | 914.2 |
| 20260504211136 | 58 | 93 | 11.3 | 16.5 | 0.00 | 0.00 | 0.00 | 97 | 914.3 |
| 20260504210735 | 58 | 71 | 12.2 | 16.5 | 0.00 | 0.00 | 0.00 | 97 | 914.3 |
| 20260504210235 | 58 | 63 | 10.4 | 13.0 | 0.00 | 0.00 | 0.00 | 97 | 914.3 |
| 20260504205936 | 59 | 75 | 10.4 | 13.0 | 0.00 | 0.00 | 0.00 | 97 | 914.4 |
| 20260504205735 | 59 | 85 | 10.4 | 13.0 | 0.00 | 0.00 | 0.00 | 97 | 914.4 |
| 20260504205336 | 59 | 67 | 8.7 | 13.0 | 0.00 | 0.00 | 0.00 | 97 | 914.5 |
| 20260504205235 | 59 | 51 | 8.7 | 13.0 | 0.00 | 0.00 | 0.00 | 97 | 914.5 |
| 20260504204736 | 59 | 79 | 8.7 | 13.0 | 0.00 | 0.00 | 0.00 | 97 | 914.5 |
| 20260504204235 | 59 | 64 | 8.7 | 13.0 | 0.00 | 0.00 | 0.00 | 97 | 914.5 |
| 20260504204136 | 59 | 75 | 9.6 | 13.0 | 0.00 | 0.00 | 0.00 | 97 | 914.5 |
| 20260504203734 | 59 | 81 | 10.4 | 14.8 | 0.00 | 0.00 | 0.00 | 97 | 914.5 |
| 20260504203536 | 59 | 42 | 10.4 | 14.8 | 0.00 | 0.00 | 0.00 | 97 | 914.4 |
| 20260504203234 | 59 | 52 | 9.6 | 14.8 | 0.00 | 0.00 | 0.00 | 97 | 914.5 |
| 20260504202936 | 59 | 60 | 11.3 | 15.6 | 0.00 | 0.00 | 0.00 | 97 | 914.5 |
| 20260504202734 | 59 | 68 | 11.3 | 15.6 | 0.00 | 0.00 | 0.00 | 97 | 914.5 |
| 20260504202336 | 59 | 63 | 11.3 | 15.6 | 0.00 | 0.00 | 0.00 | 97 | 914.5 |
| 20260504202234 | 59 | 81 | 12.2 | 15.6 | 0.00 | 0.00 | 0.00 | 97 | 914.5 |
| 20260504201736 | 59 | 68 | 13.0 | 17.4 | 0.00 | 0.00 | 0.00 | 97 | 914.4 |
| 20260504201734 | 59 | 78 | 13.0 | 17.4 | 0.00 | 0.00 | 0.00 | 97 | 914.3 |
| 20260504201235 | 59 | 76 | 13.9 | 18.2 | 0.00 | 0.00 | 0.00 | 97 | 914.3 |
| 20260504201136 | 59 | 72 | 12.2 | 18.2 | 0.00 | 0.00 | 0.00 | 97 | 914.2 |
| 20260504200734 | 59 | 71 | 14.8 | 18.2 | 0.00 | 0.00 | 0.00 | 97 | 914.2 |
| 20260504200536 | 59 | 84 | 13.0 | 20.0 | 0.00 | 0.00 | 0.00 | 97 | 914.1 |
| 20260504200234 | 59 | 75 | 13.9 | 20.0 | 0.00 | 0.00 | 0.00 | 97 | 914.1 |
| 20260504195936 | 59 | 73 | 13.9 | 20.0 | 0.00 | 0.00 | 0.00 | 97 | 914.1 |
| 20260504195734 | 59 | 72 | 14.8 | 20.0 | 0.00 | 0.00 | 0.00 | 97 | 914.0 |
| 20260504195336 | 59 | 83 | 12.2 | 17.4 | 0.00 | 0.00 | 0.00 | 97 | 914.0 |
| 20260504195234 | 59 | 70 | 12.2 | 15.6 | 0.00 | 0.00 | 0.00 | 97 | 914.2 |
| 20260504194736 | 59 | 38 | 12.2 | 15.6 | 0.00 | 0.00 | 0.00 | 97 | 914.2 |
| 20260504194734 | 59 | 55 | 12.2 | 15.6 | 0.00 | 0.00 | 0.00 | 97 | 914.2 |
| 20260504194234 | 59 | 78 | 11.3 | 15.6 | 0.00 | 0.00 | 0.00 | 97 | 914.3 |
| 20260504194136 | 59 | 78 | 12.2 | 15.6 | 0.00 | 0.00 | 0.00 | 97 | 914.3 |
| 20260504193734 | 59 | 73 | 13.0 | 16.5 | 0.00 | 0.00 | 0.00 | 97 | 914.3 |
| 20260504193538 | 59 | 65 | 13.0 | 16.5 | 0.00 | 0.00 | 0.00 | 97 | 914.2 |
| 20260504193234 | 59 | 55 | 12.2 | 16.5 | 0.00 | 0.00 | 0.00 | 97 | 914.3 |
| 20260504192935 | 59 | 66 | 11.3 | 17.4 | 0.00 | 0.00 | 0.00 | 97 | 914.3 |
| 20260504192734 | 59 | 45 | 11.3 | 17.4 | 0.00 | 0.00 | 0.00 | 97 | 914.4 |
| 20260504192335 | 59 | 55 | 13.0 | 17.4 | 0.00 | 0.00 | 0.00 | 97 | 914.3 |
| 20260504192234 | 59 | 61 | 13.9 | 17.4 | 0.00 | 0.00 | 0.00 | 97 | 914.3 |
| 20260504191736 | 59 | 59 | 13.0 | 17.4 | 0.00 | 0.00 | 0.00 | 97 | 914.2 |
| 20260504191734 | 59 | 63 | 13.0 | 17.4 | 0.00 | 0.00 | 0.00 | 97 | 914.2 |
| 20260504191234 | 59 | 73 | 13.9 | 15.6 | 0.00 | 0.00 | 0.00 | 97 | 914.3 |
| 20260504191135 | 59 | 45 | 13.9 | 15.6 | 0.00 | 0.00 | 0.00 | 97 | 914.3 |
| 20260504190734 | 59 | 68 | 13.0 | 18.2 | 0.00 | 0.00 | 0.00 | 97 | 914.3 |
| 20260504190535 | 59 | 86 | 14.8 | 18.2 | 0.00 | 0.00 | 0.00 | 97 | 914.2 |
| 20260504185936 | 59 | 62 | 15.6 | 20.0 | 0.00 | 0.00 | 0.00 | 97 | 914.3 |
| 20260504185335 | 60 | 76 | 15.6 | 20.9 | 0.00 | 0.00 | 0.00 | 97 | 914.2 |
| 20260504185234 | 60 | 75 | 14.8 | 20.9 | 0.00 | 0.00 | 0.00 | 97 | 914.3 |
| 20260504184736 | 60 | 80 | 13.9 | 20.9 | 0.00 | 0.00 | 0.00 | 97 | 914.4 |
| 20260504184734 | 60 | 79 | 13.9 | 20.9 | 0.00 | 0.00 | 0.00 | 97 | 914.4 |
| 20260504184234 | 60 | 71 | 15.6 | 20.9 | 0.00 | 0.00 | 0.00 | 97 | 914.4 |
| 20260504184135 | 60 | 69 | 15.6 | 20.0 | 0.00 | 0.00 | 0.00 | 97 | 914.4 |
| 20260504183734 | 60 | 73 | 14.8 | 20.9 | 0.00 | 0.00 | 0.00 | 97 | 914.3 |
| 20260504183535 | 60 | 55 | 16.5 | 20.9 | 0.00 | 0.00 | 0.00 | 97 | 914.4 |
| 20260504183233 | 60 | 67 | 15.6 | 20.9 | 0.00 | 0.00 | 0.00 | 97 | 914.4 |
| 20260504182935 | 60 | 90 | 17.4 | 20.9 | 0.00 | 0.00 | 0.00 | 97 | 914.5 |
| 20260504182733 | 60 | 80 | 16.5 | 21.7 | 0.00 | 0.00 | 0.00 | 97 | 914.6 |
| 20260504182335 | 60 | 83 | 17.4 | 21.7 | 0.00 | 0.00 | 0.00 | 97 | 914.3 |
| 20260504182233 | 60 | 83 | 16.5 | 22.6 | 0.00 | 0.00 | 0.00 | 97 | 914.4 |
| 20260504181736 | 60 | 82 | 18.2 | 22.6 | 0.00 | 0.00 | 0.00 | 97 | 914.2 |
| 20260504181734 | 60 | 74 | 18.2 | 22.6 | 0.00 | 0.00 | 0.00 | 97 | 914.2 |
| 20260504181233 | 60 | 72 | 18.2 | 22.6 | 0.00 | 0.00 | 0.00 | 97 | 914.6 |
| 20260504181135 | 60 | 77 | 19.1 | 22.6 | 0.00 | 0.00 | 0.00 | 97 | 914.4 |
| 20260504180734 | 60 | 85 | 17.4 | 22.6 | 0.00 | 0.00 | 0.00 | 97 | 914.8 |
| 20260504180535 | 60 | 86 | 17.4 | 21.7 | 0.00 | 0.00 | 0.00 | 97 | 914.7 |
| 20260504180233 | 60 | 79 | 15.6 | 21.7 | 0.00 | 0.00 | 0.00 | 97 | 914.8 |
| 20260504175935 | 60 | 67 | 16.5 | 21.7 | 0.00 | 0.00 | 0.00 | 97 | 915.1 |
| 20260504175733 | 60 | 73 | 15.6 | 20.9 | 0.00 | 0.00 | 0.00 | 97 | 915.0 |
| 20260504175335 | 60 | 89 | 14.8 | 18.2 | 0.00 | 0.00 | 0.00 | 97 | 915.0 |
| 20260504175233 | 60 | 71 | 14.8 | 18.2 | 0.00 | 0.00 | 0.00 | 97 | 915.2 |
| 20260504174735 | 60 | 78 | 13.0 | 19.1 | 0.00 | 0.00 | 0.00 | 97 | 915.3 |
| 20260504174733 | 60 | 77 | 13.0 | 19.1 | 0.00 | 0.00 | 0.00 | 97 | 915.4 |
| 20260504174233 | 60 | 71 | 13.0 | 19.1 | 0.00 | 0.00 | 0.00 | 97 | 915.4 |
| 20260504174135 | 60 | 78 | 13.9 | 20.0 | 0.00 | 0.00 | 0.00 | 97 | 915.4 |
| 20260504173733 | 60 | 65 | 12.2 | 24.3 | 0.00 | 0.00 | 0.00 | 97 | 915.4 |
| 20260504173534 | 60 | 62 | 13.0 | 24.3 | 0.00 | 0.00 | 0.00 | 97 | 915.3 |
| 20260504173233 | 60 | 70 | 15.6 | 24.3 | 0.00 | 0.00 | 0.00 | 97 | 915.4 |
| 20260504172935 | 60 | 66 | 15.6 | 20.9 | 0.00 | 0.00 | 0.00 | 97 | 915.1 |
| 20260504172733 | 60 | 65 | 14.8 | 20.9 | 0.00 | 0.00 | 0.00 | 97 | 915.2 |
| 20260504172334 | 60 | 61 | 16.5 | 20.9 | 0.00 | 0.00 | 0.00 | 97 | 915.3 |
| 20260504171735 | 60 | 86 | 15.6 | 18.2 | 0.00 | 0.00 | 0.00 | 97 | 915.4 |
| 20260504171134 | 60 | 77 | 15.6 | 20.9 | 0.00 | 0.00 | 0.00 | 97 | 915.5 |
| 20260504170534 | 60 | 63 | 14.8 | 20.0 | 0.00 | 0.00 | 0.00 | 97 | 915.6 |
| 20260504160232 | 60 | 81 | 18.2 | 23.5 | 0.00 | 0.00 | 0.00 | 97 | 915.7 |
| 20260504151133 | 61 | 60 | 18.2 | 22.6 | 0.00 | 0.00 | 0.00 | 97 | 916.2 |
| 20260504150732 | 61 | 96 | 15.6 | 20.0 | 0.00 | 0.00 | 0.00 | 97 | 916.1 |
| 20260504150533 | 61 | 75 | 4.3 | 20.0 | 0.00 | 0.00 | 0.00 | 97 | 916.2 |
| 20260504150232 | 61 | 67 | 13.0 | 23.5 | 0.00 | 0.00 | 0.00 | 97 | 916.1 |
| 20260504141133 | 62 | 68 | 20.0 | 25.2 | 0.00 | 0.00 | 0.00 | 97 | 915.8 |
| 20260504140732 | 62 | 73 | 19.1 | 27.8 | 0.00 | 0.00 | 0.00 | 97 | 915.9 |
| 20260504140533 | 62 | 46 | 19.1 | 27.8 | 0.00 | 0.00 | 0.00 | 97 | 915.8 |
| 20260504140232 | 62 | 77 | 17.4 | 24.3 | 0.00 | 0.00 | 0.00 | 97 | 915.6 |
| 20260504130731 | 62 | 67 | 18.2 | 24.3 | 0.00 | 0.00 | 0.00 | 97 | 916.0 |
| 20260504130532 | 62 | 65 | 15.6 | 19.1 | 0.00 | 0.00 | 0.00 | 97 | 916.0 |
| 20260504130231 | 62 | 85 | 3.5 | 16.5 | 0.00 | 0.00 | 0.00 | 97 | 916.0 |
| 20260504120231 | 62 | 95 | 1.7 | 17.4 | 0.00 | 0.00 | 0.00 | 97 | 915.0 |